User: anonymous   Login
Location: Quedlinburg
(51.7921°N, 11.1414°E)
Time: 23:23:41
(UTC+01:00)
Language:

UNISAT 6 - Orbit

View from above orbital plane
View from above orbital plane
View from above satellite
View from above satellite

Ground track
Ground track

The orbit is defined by the following mean orbital elements,

1 40012U          26073.38168125 +.00000000 +00000-0 +42208-3 0 00001
2 40012  97.7730 227.8671 0045760  22.5980 337.7238 14.87674800    01
Epoch (UTC): 14 March 2026 09:09:37
Eccentricity: 0.0045760
inclination: 97.7730°
perigee height: 573 km
apogee height: 637 km
right ascension of ascending node: 227.8671°
argument of perigee: 22.5980°
revolutions per day: 14.87674800
mean anomaly at epoch: 337.7238°

The dashed part of the orbit path shows where the satellite is in the earth's shadow,  

DLR